Vertical_Velocity
-41 67 38 -7 21 10 3 -3 -8 1 -5 5 9 -1 3 4 -0 -1 -2 -2 -0 -0 -1 1 3 0 0 -3 -1 1 -3 -2
-8 -12 12 -0 10 15 9 3 -1 -6 -1 2 -0 3 2 2 4 -1 -2 0 -1 -4 -3 0 -4 -0 1 0 3 -1 -1 2
2 7 -1 3 3 2 3 13 -5 -2 1 -0 1 6 3 1 4 -1 -2 -3 -3 -3 -1 -5 1 -2 -0 -1 -1 -0 -1 -1
6 -0 0 -3 2 0 3 5 2 1 -2 0 -1 -3 1 6 -3 -4 -4 -0 -2 -1 -2 1 -0 -1 -2 1 2 1 -1 -1
1 -3 -2 3 3 21 7 8 2 3 1 -2 -1 1 2 2 4 -1 -2 -3 -1 -1 2 1 3 -2 1 0 2 3 0 3
-7 0 4 -1 -4 6 43 13 10 8 4 1 -7 0 6 7 0 -1 -1 3 -1 0 0 3 -1 -0 1 1 2 -0 -3 -4
-0 -3 2 5 -2 -1 -4 -3 11 12 -0 -0 -2 -1 2 6 1 -1 -2 1 -1 4 2 -1 -0 -0 -2 -1 -1 -1 2 0
1 -1 3 -2 9 3 -10 1 -1 10 0 6 6 2 3 5 -3 1 -0 0 2 0 3 3 0 1 -0 -0 -1 -3 2 1
2 2 5 0 2 -1 -3 -0 3 8 5 -1 5 0 3 5 0 2 0 -0 1 1 1 0 -2 1 -1 -1 -1 4 -6 0
3 1 4 -0 0 -3 9 -0 5 2 5 9 1 -4 -1 2 -0 2 0 1 1 1 -1 -1 0 0 -2 0 -0 1 2 -0
3 1 1 6 -1 9 4 6 22 9 11 7 -3 -0 -1 0 2 1 1 1 -0 -1 -0 -0 -1 -0 -1 -0 -1 -2 -2 -1
-3 2 -3 2 -1 5 7 11 4 7 2 3 -1 3 3 -0 0 1 0 -0 1 0 0 1 -2 2 -0 -2 1 0 4 -1
-1 -3 1 -9 10 2 -7 -9 -0 -3 3 7 7 4 3 7 5 -1 -0 -2 -0 -1 1 0 1 -2 0 -2 3 -0 -3 0
-1 -1 -0 -1 -5 7 3 2 3 5 1 2 5 2 1 -2 0 -0 -1 -1 1 2 3 2 2 -2 0 0 1 -3 -3 0
-3 1 -1 -1 -0 -0 -2 8 -4 -2 -1 -3 -1 2 5 -1 0 3 2 5 2 4 2 0 -3 0 2 2 2 4 -1 -2
-2 -3 -0 -1 -0 2 1 1 9 10 5 -4 3 0 1 3 1 1 2 0 -3 1 -1 -0 -2 1 -0 0 3 -0 0 -1
-1 -2 -0 -1 1 -6 4 3 6 2 3 5 -1 1 1 3 4 -1 -2 0 -3 -4 1 -4 1 1 1 -1 -1 2 -5 2
1 -1 0 1 -2 1 1 -5 -3 -2 -0 1 1 -1 -1 2 -4 2 4 -0 0 -1 -3 -5 -1 0 -0 2 -2 -0 -1 40
-3 -3 -3 -1 -3 -2 -1 1 -1 -2 -2 2 -1 2 -6 -3 0 -2 1 -0 -3 -4 1 0 -1 2 -2 2 -1 -1 -1 -2
-1 -0 0 0 -1 -0 0 -1 2 -2 -3 -2 -1 4 4 1 -1 -3 -1 1 -2 0 2 -2 -3 -1 -3 2 -0 -1 2 -2
Height
5733 5728 5730 5745 5748 5760 5769 5775 5781 5785 5790 5795 5799 5804 5809 5811 5817 5819 5818 5819 5822 5825 5827 5829 5830 5831 5832 5833 5833 5833 5835 5834
5730 5733 5738 5747 5752 5758 5764 5771 5774 5780 5784 5789 5794 5800 5806 5809 5813 5814 5814 5815 5817 5820 5823 5824 5826 5826 5826 5827 5828 5828 5828 5829
5730 5732 5738 5744 5748 5754 5759 5766 5771 5774 5779 5785 5790 5797 5802 5806 5808 5810 5811 5812 5814 5816 5818 5820 5820 5821 5821 5822 5823 5825 5823 5824
5732 5731 5733 5738 5743 5749 5750 5761 5765 5770 5776 5782 5786 5792 5797 5803 5805 5807 5808 5809 5810 5812 5815 5815 5816 5817 5817 5817 5818 5820 5819 5821
5730 5730 5733 5734 5737 5744 5747 5753 5758 5766 5772 5777 5780 5785 5792 5800 5802 5802 5803 5804 5807 5808 5810 5811 5814 5813 5812 5812 5813 5812 5814 5816
5726 5727 5729 5729 5731 5735 5736 5745 5755 5758 5767 5771 5774 5781 5788 5796 5796 5797 5799 5799 5801 5803 5806 5807 5807 5807 5808 5808 5808 5809 5809 5811
5722 5723 5722 5721 5722 5726 5731 5739 5748 5754 5761 5765 5772 5778 5784 5791 5790 5792 5794 5794 5797 5799 5800 5802 5803 5804 5803 5805 5805 5804 5805 5807
5721 5719 5715 5711 5713 5717 5722 5732 5741 5747 5753 5762 5767 5774 5780 5785 5785 5788 5788 5790 5791 5795 5796 5798 5798 5798 5799 5799 5800 5801 5802 5804
5718 5717 5711 5706 5706 5704 5713 5726 5733 5743 5751 5757 5764 5770 5775 5778 5781 5782 5783 5786 5787 5788 5791 5792 5793 5793 5794 5794 5793 5796 5797 5800
5716 5715 5711 5702 5702 5700 5711 5721 5732 5741 5746 5754 5759 5765 5770 5773 5776 5777 5779 5780 5782 5783 5785 5786 5786 5786 5787 5787 5788 5790 5793 5796
5714 5714 5713 5705 5704 5707 5712 5721 5730 5739 5744 5749 5755 5761 5765 5768 5771 5773 5775 5776 5777 5779 5780 5781 5780 5780 5781 5783 5786 5787 5789 5791
5712 5712 5713 5710 5708 5709 5717 5722 5730 5736 5742 5747 5753 5756 5760 5764 5766 5768 5769 5771 5771 5773 5775 5775 5775 5776 5777 5779 5782 5784 5785 5786
5711 5711 5712 5713 5712 5713 5718 5725 5730 5735 5739 5744 5750 5753 5756 5759 5761 5763 5765 5765 5766 5769 5769 5770 5770 5770 5773 5775 5778 5779 5780 5781
5709 5711 5711 5714 5715 5716 5721 5726 5731 5735 5738 5742 5746 5750 5753 5754 5756 5757 5758 5760 5761 5763 5763 5764 5764 5766 5769 5772 5774 5776 5775 5776
5709 5709 5710 5713 5716 5718 5721 5724 5728 5732 5736 5740 5743 5747 5748 5749 5749 5751 5753 5754 5755 5756 5757 5759 5761 5764 5765 5769 5770 5770 5769 5770
5707 5708 5708 5710 5713 5714 5717 5720 5724 5728 5732 5734 5739 5742 5744 5745 5744 5745 5747 5748 5749 5752 5753 5755 5757 5760 5761 5763 5763 5763 5763 5763
5708 5708 5709 5710 5710 5711 5713 5717 5722 5725 5726 5730 5733 5736 5738 5738 5739 5739 5741 5743 5746 5747 5750 5752 5753 5754 5755 5756 5756 5756 5756 5755
5711 5711 5711 5712 5712 5711 5711 5714 5717 5719 5722 5725 5728 5730 5731 5732 5733 5736 5741 5741 5746 5745 5745 5746 5748 5749 5750 5749 5750 5749 5749 5748
5711 5711 5712 5712 5712 5713 5714 5716 5717 5718 5720 5722 5726 5727 5729 5732 5734 5736 5739 5739 5740 5739 5740 5742 5743 5742 5741 5741 5741 5741 5741 5739
5709 5708 5709 5710 5712 5713 5712 5715 5717 5718 5720 5720 5723 5727 5728 5731 5732 5733 5733 5733 5735 5735 5736 5737 5737 5736 5734 5735 5732 5732 5730 5727